Total_Precipitation_Accumulation
0.87 0.32 0.01 0.00 0.00 0.00 0.01 0.02 0.03 0.03 0.02 0.01 0.03 0.05 0.06 0.02 0.02 0.01 0.02 0.00 0.01 0.01 0.01 0.00 0.00 0.00 0.00 0.00 0.00 0.00 0.00 0.00 0.00
0.52 0.23 0.02 0.00 0.00 0.00 0.00 0.02 0.04 0.03 0.01 0.02 0.05 0.02 0.03 0.03 0.01 0.01 0.00 0.01 0.03 0.01 0.01 0.02 0.03 0.04 0.04 0.03 0.03 0.04 0.03 0.03 0.03
0.21 0.15 0.04 0.01 0.00 0.00 0.00 0.02 0.05 0.05 0.04 0.04 0.03 0.01 0.01 0.01 0.01 0.01 0.02 0.01 0.03 0.08 0.12 0.10 0.08 0.06 0.04 0.02 0.02 0.02 0.03 0.03 0.03
0.01 0.04 0.06 0.02 0.00 0.00 0.00 0.03 0.07 0.06 0.05 0.04 0.06 0.00 0.00 0.01 0.01 0.03 0.02 0.07 0.18 0.16 0.07 0.03 0.02 0.03 0.03 0.05 0.05 0.04 0.03 0.02 0.02
0.09 0.01 0.00 0.00 0.00 0.00 0.02 0.04 0.07 0.06 0.09 0.05 0.01 0.00 0.00 0.02 0.03 0.02 0.11 0.30 0.18 0.05 0.01 0.02 0.06 0.06 0.05 0.03 0.01 0.01 0.01 0.01 0.01
0.01 0.00 0.00 0.00 0.01 0.01 0.04 0.05 0.06 0.02 0.07 0.07 0.00 0.00 0.00 0.00 0.02 0.05 0.25 0.28 0.06 0.01 0.00 0.03 0.03 0.02 0.01 0.01 0.01 0.01 0.01 0.01 0.00
0.00 0.00 0.00 0.00 0.01 0.02 0.06 0.06 0.03 0.01 0.04 0.01 0.01 0.00 0.00 0.01 0.03 0.07 0.28 0.16 0.00 0.00 0.00 0.01 0.01 0.01 0.02 0.02 0.01 0.00 0.00 0.00 0.00
0.00 0.00 0.00 0.00 0.01 0.02 0.06 0.04 0.00 0.00 0.03 0.01 0.01 0.00 0.00 0.02 0.04 0.13 0.23 0.08 0.04 0.01 0.01 0.01 0.01 0.02 0.02 0.01 0.00 0.00 0.00 0.00 0.00
0.00 0.00 0.00 0.00 0.00 0.01 0.02 0.01 0.00 0.00 0.03 0.02 0.00 0.00 0.00 0.04 0.10 0.16 0.19 0.10 0.09 0.02 0.01 0.02 0.01 0.01 0.01 0.00 0.00 0.00 0.00 0.00 0.00
0.08 0.02 0.01 0.00 0.00 0.00 0.01 0.02 0.00 0.00 0.03 0.02 0.00 0.00 0.01 0.07 0.06 0.05 0.09 0.11 0.06 0.02 0.02 0.01 0.02 0.01 0.01 0.01 0.01 0.00 0.00 0.00 0.00
0.99 0.40 0.11 0.05 0.01 0.00 0.01 0.00 0.00 0.00 0.02 0.01 0.00 0.01 0.02 0.04 0.02 0.02 0.03 0.06 0.05 0.03 0.02 0.02 0.01 0.01 0.01 0.01 0.00 0.00 0.00 0.00 0.00
0.90 1.04 0.78 0.29 0.16 0.07 0.01 0.00 0.00 0.00 0.00 0.00 0.00 0.01 0.04 0.03 0.03 0.01 0.01 0.02 0.02 0.04 0.02 0.02 0.02 0.02 0.01 0.00 0.00 0.00 0.00 0.00 0.00
0.93 0.78 0.50 0.31 0.16 0.13 0.09 0.02 0.00 0.00 0.00 0.00 0.00 0.01 0.08 0.04 0.02 0.01 0.01 0.01 0.01 0.03 0.05 0.03 0.02 0.00 0.00 0.00 0.00 0.00 0.00 0.00 0.00
0.33 0.45 0.45 0.32 0.24 0.11 0.05 0.05 0.03 0.01 0.00 0.01 0.00 0.01 0.04 0.09 0.02 0.01 0.01 0.02 0.02 0.02 0.03 0.04 0.02 0.00 0.00 0.00 0.00 0.00 0.00 0.00 0.00
0.39 0.58 0.68 0.58 0.37 0.22 0.15 0.08 0.02 0.01 0.00 0.00 0.02 0.01 0.01 0.02 0.04 0.02 0.01 0.04 0.04 0.02 0.00 0.00 0.00 0.00 0.00 0.00 0.00 0.00 0.00 0.00 0.00
0.50 0.61 0.79 0.75 0.63 0.57 0.44 0.40 0.34 0.24 0.11 0.07 0.07 0.06 0.01 0.01 0.01 0.01 0.00 0.01 0.04 0.01 0.00 0.00 0.00 0.00 0.00 0.00 0.00 0.00 0.00 0.00 0.00
0.56 0.70 0.60 0.48 0.53 0.58 0.50 0.33 0.32 0.38 0.38 0.33 0.24 0.26 0.21 0.07 0.01 0.01 0.00 0.00 0.00 0.00 0.00 0.00 0.00 0.00 0.00 0.00 0.00 0.00 0.00 0.00 0.00
0.21 0.29 0.40 0.40 0.35 0.29 0.26 0.22 0.19 0.24 0.30 0.27 0.31 0.22 0.20 0.17 0.11 0.03 0.01 0.00 0.00 0.00 0.00 0.00 0.00 0.00 0.00 0.00 0.00 0.00 0.00 0.00 0.00
0.17 0.21 0.27 0.24 0.21 0.22 0.18 0.12 0.07 0.10 0.18 0.17 0.13 0.07 0.06 0.11 0.18 0.15 0.08 0.04 0.01 0.00 0.00 0.00 0.00 0.00 0.00 0.00 0.00 0.00 0.00 0.00 0.00
0.09 0.13 0.17 0.22 0.20 0.14 0.12 0.10 0.08 0.08 0.10 0.10 0.09 0.08 0.06 0.02 0.02 0.03 0.03 0.03 0.02 0.01 0.00 0.00 0.00 0.00 0.00 0.00 0.00 0.00 0.00 0.00 0.00